Retour au catalogue

STARLINK-36368

ActifCommunicationsSSO
NORAD 67887·PAYLOAD·🇺🇸 United States

Lancé Feb 21, 2026 depuis Vandenberg Space Force Base

Loading…

Prochains Passages (prochaines 24 heures)

TLE

FraisSource: CelesTrak SupGP

Époque: Sep 14, 2026, 23:16 UTC

1 67887C 26035J   26257.96993056 -.00035596  00000+0 -11054-2 0  2570
2 67887  97.2846 189.9075 0001820  95.6904 357.0315 15.33444800    14

Suivez STARLINK-36368 en temps réel avec AllMySat

Download on the App Store